Cumberland, WI

4:09 AM CDT on May 25, 2017 (GMT -0500)
Cumberland Municipal

Weather History for KUBE - June, 2013

Change the Weather History Date:

Wednesday, June 26, 2013

  Actual Average (KRPD) Record (KRPD)
Temperature  
Mean Temperature 73 °F -  
Max Temperature 78 °F 76 °F 89 °F (2001)
Min Temperature 66 °F 55 °F 41 °F (2004)
Cooling Degree Days 8    
Growing Degree Days 23 (Base 50)    
Moisture  
Dew Point 68 °F    
Average Humidity 87    
Maximum Humidity 100    
Minimum Humidity 69    
Precipitation  
Precipitation 0.14 in - - ()
Sea Level Pressure  
Sea Level Pressure 29.74 in    
Wind  
Wind Speed 4 mph (SSE)    
Max Wind Speed 18 mph    
Max Gust Speed 32 mph    
Visibility 7 miles    
Events Fog , Rain , Thunderstorm    
Averages and records for this station are not official NWS values.
T = Trace of Precipitation, MM = Missing Value Source: NWS Daily Summary

Daily Weather History Graph

Daily Weather History Graph

Search for Another Location

Airport or City:

Trip Planner

Search our weather history database for the weather conditions in past years. The results will help you decide how hot, cold, wet, or windy it might be!

Date:

Astronomy

Jun. 26, 2013 Rise Set
Actual Time 5:20 AM CDT 9:00 PM CDT
Civil Twilight 4:42 AM CDT 9:38 PM CDT
Nautical Twilight 3:52 AM CDT 10:29 PM CDT
Astronomical Twilight 2:43 AM CDT 11:37 PM CDT
Moon 11:10 PM CDT (6/26) 9:24 AM CDT (6/26)
Length of Visible Light 16h 55m
Length of Day
15h 40m
Waning Gibbous, 85% of the Moon is Illuminated
Jun 26
Waning Gibbous
Jun 29
Last Quarter
Jul 8
New
Jul 15
First Quarter
Jul 22
Full

Hourly Weather History & Observations

Time (CDT) Temp. Dew Point Humidity Pressure Visibility Wind Dir Wind Speed Gust Speed Precip Events Conditions
12:15 AM 69.8 °F 68.0 °F 94% 29.77 in 10.0 mi SE 4.6 mph - N/A   Scattered Clouds
12:35 AM 69.8 °F 68.0 °F 94% 29.77 in 10.0 mi SE 4.6 mph - N/A   Mostly Cloudy
12:55 AM 69.8 °F 68.0 °F 94% 29.76 in 10.0 mi ESE 3.5 mph - N/A   Mostly Cloudy
1:15 AM 69.8 °F 68.0 °F 94% 29.75 in 10.0 mi SE 3.5 mph - N/A   Overcast
1:35 AM 69.8 °F 68.0 °F 94% 29.74 in 10.0 mi SE 3.5 mph - N/A   Mostly Cloudy
1:55 AM 69.8 °F 66.2 °F 88% 29.74 in 10.0 mi ESE 3.5 mph - N/A   Scattered Clouds
2:15 AM 69.8 °F 66.2 °F 88% 29.73 in 10.0 mi SE 3.5 mph - N/A   Clear
2:35 AM 68.0 °F 66.2 °F 94% 29.73 in 10.0 mi SE 3.5 mph - N/A   Clear
2:55 AM 68.0 °F 66.2 °F 94% 29.73 in 10.0 mi Calm Calm - N/A   Scattered Clouds
3:15 AM 68.0 °F 68.0 °F 100% 29.73 in 7.0 mi Calm Calm - N/A   Mostly Cloudy
3:35 AM 68.0 °F 66.2 °F 94% 29.73 in 7.0 mi Calm Calm - N/A   Mostly Cloudy
3:55 AM 68.0 °F 68.0 °F 100% 29.74 in 7.0 mi Calm Calm - N/A   Overcast
4:15 AM 68.0 °F 68.0 °F 100% 29.75 in 7.0 mi SE 3.5 mph - N/A   Mostly Cloudy
4:35 AM 68.0 °F 68.0 °F 100% 29.75 in 5.0 mi ESE 3.5 mph - N/A   Overcast
4:55 AM 69.8 °F 68.0 °F 94% 29.74 in 4.0 mi SE 4.6 mph - N/A   Overcast
5:15 AM 69.8 °F 68.0 °F 94% 29.74 in 1.5 mi SE 4.6 mph - N/A   Overcast
5:35 AM 69.8 °F 68.0 °F 94% 29.73 in 0.5 mi ESE 5.8 mph - N/A Fog Fog
5:55 AM 69.8 °F 68.0 °F 94% 29.73 in 0.2 mi SE 3.5 mph - N/A Fog Fog
6:15 AM 69.8 °F 68.0 °F 94% 29.72 in 0.2 mi ESE 3.5 mph - N/A Fog Fog
6:35 AM 69.8 °F 68.0 °F 94% 29.71 in 0.2 mi ESE 4.6 mph - N/A Fog Fog
6:55 AM 69.8 °F 68.0 °F 94% 29.72 in 0.2 mi SE 4.6 mph - N/A Fog Fog
7:15 AM 69.8 °F 68.0 °F 94% 29.73 in 0.2 mi South 5.8 mph - N/A Fog Fog
7:35 AM 69.8 °F 68.0 °F 94% 29.73 in 0.2 mi South 5.8 mph - N/A Fog Fog
7:55 AM 69.8 °F 68.0 °F 94% 29.72 in 0.2 mi South 8.1 mph - N/A Fog Fog
8:15 AM 69.8 °F 69.8 °F 100% 29.72 in 0.2 mi SSE 8.1 mph - N/A Fog Fog
8:35 AM 69.8 °F 69.8 °F 100% 29.72 in 0.5 mi South 6.9 mph - N/A Fog Fog
8:55 AM 69.8 °F 69.8 °F 100% 29.72 in 1.8 mi SSE 8.1 mph - N/A   Overcast
9:15 AM 71.6 °F 69.8 °F 94% 29.72 in 2.0 mi SSE 8.1 mph - N/A   Overcast
9:55 AM 71.6 °F 69.8 °F 94% 29.73 in 4.0 mi SSE 9.2 mph - N/A   Overcast
10:15 AM 71.6 °F 69.8 °F 94% 29.74 in 4.0 mi SSE 8.1 mph - N/A   Overcast
10:35 AM 71.6 °F 69.8 °F 94% 29.74 in 4.0 mi SE 6.9 mph - N/A   Overcast
10:55 AM 73.4 °F 69.8 °F 88% 29.74 in 5.0 mi SE 6.9 mph - N/A   Overcast
11:15 AM 75.2 °F 71.6 °F 89% 29.74 in 7.0 mi SSW 4.6 mph - N/A   Overcast
11:35 AM 77.0 °F 71.6 °F 83% 29.73 in 7.0 mi South 4.6 mph - N/A   Overcast
11:55 AM 78.8 °F 71.6 °F 78% 29.73 in 10.0 mi South 6.9 mph - N/A   Overcast
12:15 PM 78.8 °F 71.6 °F 78% 29.72 in 10.0 mi South 10.4 mph - N/A   Overcast
12:35 PM 78.8 °F 69.8 °F 74% 29.70 in 10.0 mi South 13.8 mph - N/A   Mostly Cloudy
12:55 PM 77.0 °F 69.8 °F 78% 29.74 in 10.0 mi South 9.2 mph - N/A   Scattered Clouds
1:15 PM 77.0 °F 69.8 °F 78% 29.74 in 7.0 mi South 9.2 mph - N/A   Mostly Cloudy
1:35 PM 77.0 °F 69.8 °F 78% 29.71 in 7.0 mi South 6.9 mph - N/A   Scattered Clouds
1:55 PM 77.0 °F 71.6 °F 83% 29.73 in 7.0 mi South 9.2 mph - N/A Thunderstorm Scattered Clouds
2:15 PM 77.0 °F 71.6 °F 83% 29.73 in 5.0 mi South 8.1 mph - N/A   Haze
2:35 PM 73.4 °F 62.6 °F 69% 29.74 in 7.0 mi SW 18.4 mph 32.2 mph N/A Thunderstorm Mostly Cloudy
2:55 PM 71.6 °F 62.6 °F 73% 29.72 in 10.0 mi SSE 4.6 mph - 0.09 in Rain , Thunderstorm Light Thunderstorms and Rain
3:15 PM 71.6 °F 66.2 °F 83% 29.75 in 10.0 mi SW 4.6 mph - 0.01 in Rain Light Rain
3:35 PM 73.4 °F 64.4 °F 73% 29.76 in 10.0 mi NW 3.5 mph - 0.01 in Thunderstorm Thunderstorm
3:55 PM 71.6 °F 68.0 °F 88% 29.75 in 10.0 mi North 4.6 mph - 0.01 in   Overcast
4:15 PM 73.4 °F 68.0 °F 83% 29.75 in 10.0 mi Calm Calm - N/A   Mostly Cloudy
4:35 PM 77.0 °F 68.0 °F 74% 29.73 in 10.0 mi Calm Calm - N/A   Scattered Clouds
4:55 PM 77.0 °F 69.8 °F 78% 29.74 in 10.0 mi Calm Calm - N/A   Clear
5:15 PM 78.8 °F 69.8 °F 74% 29.72 in 10.0 mi SW 4.6 mph - N/A   Clear
5:35 PM 78.8 °F 68.0 °F 69% 29.74 in 10.0 mi WSW 4.6 mph - N/A   Clear
5:55 PM 78.8 °F 68.0 °F 69% 29.73 in 10.0 mi SW 4.6 mph - N/A Thunderstorm Clear
6:15 PM 78.8 °F 69.8 °F 74% 29.72 in 10.0 mi Calm Calm - N/A Rain , Thunderstorm Rain
6:35 PM 77.0 °F 71.6 °F 83% 29.72 in 10.0 mi NW 5.8 mph - 0.04 in Rain , Thunderstorm Light Thunderstorms and Rain
6:55 PM 75.2 °F 66.2 °F 73% 29.73 in 10.0 mi WNW 8.1 mph - 0.04 in   Scattered Clouds
7:15 PM 73.4 °F 64.4 °F 73% 29.74 in 10.0 mi WSW 4.6 mph - N/A   Clear
7:35 PM 73.4 °F 64.4 °F 73% 29.74 in 10.0 mi Calm Calm - N/A   Scattered Clouds
7:55 PM 73.4 °F 66.2 °F 78% 29.75 in 10.0 mi Calm Calm - N/A   Mostly Cloudy
8:15 PM 73.4 °F 68.0 °F 83% 29.75 in 10.0 mi WNW 3.5 mph - N/A   Scattered Clouds
8:35 PM 73.4 °F 68.0 °F 83% 29.76 in 10.0 mi Calm Calm - N/A   Clear
8:55 PM 71.6 °F 66.2 °F 83% 29.76 in 10.0 mi NW 4.6 mph - N/A   Scattered Clouds
9:15 PM 69.8 °F 68.0 °F 94% 29.77 in 10.0 mi WNW 3.5 mph - N/A   Scattered Clouds
9:35 PM 69.8 °F 66.2 °F 88% 29.78 in 10.0 mi Calm Calm - N/A   Scattered Clouds
9:55 PM 69.8 °F 68.0 °F 94% 29.78 in 10.0 mi Calm Calm - N/A   Clear
10:15 PM 69.8 °F 68.0 °F 94% 29.78 in 10.0 mi Calm Calm - N/A   Clear
10:35 PM 68.0 °F 66.2 °F 94% 29.79 in 10.0 mi Calm Calm - N/A   Clear
10:55 PM 68.0 °F 66.2 °F 94% 29.81 in 10.0 mi West 3.5 mph - N/A   Scattered Clouds
11:15 PM 68.0 °F 64.4 °F 88% 29.81 in 10.0 mi Calm Calm - N/A   Scattered Clouds
11:35 PM 68.0 °F 66.2 °F 94% 29.81 in 10.0 mi Calm Calm - N/A   Clear
11:55 PM 66.2 °F 64.4 °F 94% 29.81 in 10.0 mi Calm Calm - N/A   Clear